Location: Chimay
(50.0486°N, 4.3171°E)
Time: 10:01:39
(UTC+00:00)

Intercosmos 25 - Pass Details

Date: 08 August 2020
Orbit: 439 x 2877 km, 82.6° (Epoch: 20 September)

Event Time Altitude Azimuth Distance (km) Brightness Sun altitude
Rises 19:49:08 0° 351° (N) 3,618 8.2 -5.8°
Reaches altitude 10° 19:52:08 10° 355° (N) 2,347 7.1 -6.2°
Maximum altitude 19:56:57 58° 74° (ENE) 678 3.6 -6.9°
Drops below altitude 10° 20:00:21 10° 155° (SSE) 1,662 5.2 -7.3°
Enters shadow 20:01:01 - 158° (SSE) 1,946 5.6 -7.4°
